FW0270 Weather Reports


Display with metric or nautical units.
time (UTC)temp
F
wind
direction
speed
MPH
gust
MPH
rain 1hr
in
rain 24hr
in
rain mn
in
humidity
%
barometer
mb
20260508110019 33 125 0.0 0.0 0.00 0.00 0.00 78 1010.9
20260508104517 33 125 0.0 0.0 0.00 0.00 0.00 76 1010.9
20260508103016 34 125 0.0 0.0 0.00 0.00 0.00 74 1010.8
20260508101511 34 125 0.0 0.0 0.00 0.00 0.00 75 1011.0
20260508100009 34 125 0.0 0.0 0.00 0.00 0.00 75 1011.0
20260508094506 34 125 0.0 0.0 0.00 0.00 0.00 75 1011.1
20260508093007 34 125 0.0 0.0 0.00 0.00 0.00 74 1011.0
20260508091501 35 125 0.0 0.0 0.00 0.00 0.00 73 1011.0
20260508090100 36 125 0.0 0.0 0.00 0.00 0.00 71 1011.2
20260508084554 37 125 0.0 0.0 0.00 0.00 0.00 69 1011.2
20260508083053 37 125 0.0 0.0 0.00 0.00 0.00 69 1011.3
20260508081601 37 125 0.0 0.0 0.00 0.00 0.00 68 1011.2
20260508080048 38 125 0.0 0.0 0.00 0.00 0.00 66 1011.3
20260508074545 40 125 0.0 0.0 0.00 0.00 0.00 63 1011.3
20260508073043 41 125 0.0 0.0 0.00 0.00 0.00 61 1011.6
20260508071542 41 125 0.0 0.0 0.00 0.00 0.00 61 1011.7
20260508070041 42 125 0.0 1.0 0.00 0.00 0.00 59 1011.6
20260508064558 41 127 0.0 1.0 0.00 0.00 0.00 62 1011.7
20260508063039 40 129 0.0 0.0 0.00 0.00 0.00 63 1012.0
20260508061537 40 129 0.0 1.0 0.00 0.00 0.00 62 1012.3
20260508060038 40 129 0.0 0.0 0.00 0.00 0.00 62 1012.3
20260508054553 40 129 0.0 0.0 0.00 0.00 0.00 63 1012.4
20260508053031 40 129 0.0 0.0 0.00 0.00 0.00 63 1012.5
20260508051531 41 129 0.0 0.0 0.00 0.00 0.00 62 1012.7
20260508050033 42 129 0.0 0.0 0.00 0.00 0.00 60 1012.7
20260508044525 43 129 0.0 0.0 0.00 0.00 0.00 55 1012.8
20260508043031 44 94 0.0 1.0 0.00 0.00 0.00 53 1012.6
20260508041521 45 60 0.0 0.0 0.00 0.00 0.00 51 1012.6
20260508040021 47 60 0.0 1.0 0.00 0.00 0.00 48 1012.5
20260508034526 48 59 0.0 1.0 0.00 0.00 0.00 46 1012.3
20260508033019 49 44 1.0 4.0 0.00 0.00 0.00 45 1012.2
20260508031519 49 24 0.0 1.0 0.00 0.00 0.00 46 1012.3
20260508030018 49 24 0.0 2.0 0.00 0.00 0.00 47 1012.3
20260508024520 46 20 0.0 1.0 0.00 0.00 0.00 56 1012.2
20260508023016 46 20 0.0 1.0 0.00 0.00 0.00 59 1012.0
20260508021517 47 20 0.0 0.0 0.00 0.00 0.00 59 1011.7
20260508020016 48 20 0.0 0.0 0.00 0.00 0.00 56 1011.3
20260508014516 50 20 0.0 0.0 0.00 0.00 0.00 54 1011.0
20260508013014 53 20 0.0 0.0 0.00 0.00 0.00 49 1010.9
20260508011514 57 20 0.0 0.0 0.00 0.00 0.00 42 1010.6
20260508010025 60 20 0.0 3.0 0.00 0.00 0.00 34 1010.5
20260508004527 62 22 1.0 7.0 0.00 0.00 0.00 32 1010.4
20260508003011 62 32 2.0 8.0 0.00 0.00 0.00 31 1010.3
20260508001511 63 38 2.0 6.0 0.00 0.00 0.00 30 1010.3
20260508000010 64 21 3.0 10.0 0.00 0.00 0.00 30 1010.2
20260507234518 64 35 2.0 7.0 0.00 0.00 0.00 30 1010.4
20260507233013 65 23 6.0 10.0 0.00 0.00 0.00 29 1010.3
20260507231507 65 337 3.0 13.0 0.00 0.00 0.00 29 1010.4
20260507220039 65 295 2.0 7.0 0.00 0.00 0.00 31 1010.7
20260507214545 65 316 2.0 7.0 0.00 0.00 0.00 31 1010.9
20260507213042 65 297 2.0 14.0 0.00 0.00 0.00 31 1010.8
20260507211547 65 262 2.0 10.0 0.00 0.00 0.00 35 1010.7
20260507210034 65 291 3.0 8.0 0.00 0.00 0.00 33 1010.9
20260507204531 65 283 0.0 5.0 0.00 0.00 0.00 33 1011.0
20260507203034 64 312 7.0 16.0 0.00 0.00 0.00 32 1011.1
20260507201530 64 129 1.0 11.0 0.00 0.00 0.00 34 1011.2
20260507200028 64 313 6.0 13.0 0.00 0.00 0.00 32 1011.4
20260507194528 65 339 5.0 13.0 0.00 0.00 0.00 32 1011.7
20260507193027 64 304 2.0 14.0 0.00 0.00 0.00 36 1011.7
20260507191527 63 301 5.0 11.0 0.00 0.00 0.00 35 1011.7
20260507190021 62 295 4.0 12.0 0.00 0.00 0.00 35 1011.8
20260507184520 62 328 5.0 12.0 0.00 0.00 0.00 34 1011.6
20260507183018 62 30 3.0 8.0 0.00 0.00 0.00 39 1011.8
20260507181517 60 32 4.0 11.0 0.00 0.00 0.00 38 1011.8
20260507180014 60 48 7.0 15.0 0.00 0.00 0.00 37 1011.9
20260507174534 61 28 5.0 16.0 0.00 0.00 0.00 37 1012.0
20260507173016 61 318 3.0 9.0 0.00 0.00 0.00 39 1012.4
20260507171510 60 224 2.0 10.0 0.00 0.00 0.00 42 1012.4
20260507170008 60 243 3.0 9.0 0.00 0.00 0.00 39 1012.6
20260507164506 59 302 4.0 8.0 0.00 0.00 0.00 42 1012.6
20260507163003 59 264 2.0 7.0 0.00 0.00 0.00 45 1013.0
20260507161501 58 14 3.0 7.0 0.00 0.00 0.00 45 1012.9
20260507160117 57 311 0.0 6.0 0.00 0.00 0.00 51 1012.9
20260507154556 57 247 1.0 6.0 0.00 0.00 0.00 45 1013.0
20260507153051 55 290 1.0 6.0 0.00 0.00 0.00 51 1013.1
20260507151556 54 129 0.0 5.0 0.00 0.00 0.00 53 1013.4
20260507150045 53 233 0.0 5.0 0.00 0.00 0.00 51 1013.5
20260507144543 52 116 0.0 4.0 0.00 0.00 0.00 55 1013.6
20260507143039 51 132 0.0 3.0 0.00 0.00 0.00 54 1013.7
20260507141537 50 50 0.0 3.0 0.00 0.00 0.00 54 1014.1
20260507140041 48 127 0.0 4.0 0.00 0.00 0.00 59 1014.2
20260507134529 47 144 0.0 3.0 0.00 0.00 0.00 61 1014.5
20260507133025 45 115 0.0 3.0 0.00 0.00 0.00 62 1014.5
20260507131534 43 100 1.0 6.0 0.00 0.00 0.00 66 1014.7
20260507130017 42 37 1.0 5.0 0.00 0.00 0.00 67 1015.0
20260507124517 41 134 0.0 2.0 0.00 0.00 0.00 71 1014.8
20260507123010 39 122 0.0 1.0 0.00 0.00 0.00 72 1014.9
20260507121505 38 201 0.0 3.0 0.00 0.00 0.00 75 1014.6
20260507120004 36 96 0.0 4.0 0.00 0.00 0.00 75 1014.7
20260507114502 36 15 0.0 5.0 0.00 0.00 0.00 74 1014.9
20260507113003 36 79 0.0 3.0 0.00 0.00 0.00 74 1014.9
20260507111501 36 153 0.0 2.0 0.00 0.00 0.00 76 1014.7